Melfa, VA

6:34 AM EST on December 18, 2017 (GMT -0500)
Accomack County

Weather History for KMFV - January, 2014

Change the Weather History Date:

Monday, January 6, 2014

  Actual Average (KWAL) Record (KWAL)
Temperature  
Mean Temperature 48 °F -  
Max Temperature 69 °F 45 °F 70 °F (2007)
Min Temperature 26 °F 30 °F 13 °F (1999)
Degree Days  
Heating Degree Days 16    
Moisture  
Dew Point 42 °F    
Average Humidity 75    
Maximum Humidity 94    
Minimum Humidity 42    
Precipitation  
Precipitation 0.23 in - - ()
Sea Level Pressure  
Sea Level Pressure 29.71 in    
Wind  
Wind Speed 12 mph (West)    
Max Wind Speed 23 mph    
Max Gust Speed 36 mph    
Visibility 7 miles    
Events Rain    
Averages and records for this station are not official NWS values.
T = Trace of Precipitation, MM = Missing Value Source: NWS Daily Summary

Daily Weather History Graph

Daily Weather History Graph

Search for Another Location

Airport or City:

Trip Planner

Search our weather history database for the weather conditions in past years. The results will help you decide how hot, cold, wet, or windy it might be!

Date:

Astronomy

Jan. 06, 2014 Rise Set
Actual Time 7:18 AM EST 4:59 PM EST
Civil Twilight 6:49 AM EST 5:28 PM EST
Nautical Twilight 6:16 AM EST 6:01 PM EST
Astronomical Twilight 5:45 AM EST 6:32 PM EST
Moon 10:39 AM EST (1/6) 11:22 PM EST (1/6)
Length of Visible Light 10h 39m
Length of Day
9h 41m
Waxing Crescent, 34% of the Moon is Illuminated
Jan 6
Waxing Crescent
Jan 7
First Quarter
Jan 15
Full
Jan 24
Last Quarter
Jan 30
New

Hourly Weather History & Observations

Time (EST) Temp. Windchill Dew Point Humidity Pressure Visibility Wind Dir Wind Speed Gust Speed Precip Events Conditions
12:17 AM 60.8 °F - 57.2 °F 88% 29.78 in 1.8 mi South 10.4 mph - N/A   Overcast
12:37 AM 60.8 °F - 57.2 °F 88% 29.77 in 2.5 mi South 11.5 mph 19.6 mph N/A   Overcast
12:58 AM 60.8 °F - 59.0 °F 94% 29.76 in 1.5 mi South 11.5 mph 17.3 mph N/A   Overcast
1:18 AM 62.6 °F - 59.0 °F 88% 29.75 in 1.8 mi South 11.5 mph 17.3 mph N/A   Overcast
1:38 AM 60.8 °F - 59.0 °F 94% 29.73 in 1.2 mi South 10.4 mph 17.3 mph N/A   Overcast
1:58 AM 60.8 °F - 57.2 °F 88% 29.72 in 1.0 mi South 9.2 mph 17.3 mph N/A   Overcast
2:19 AM 60.8 °F - 57.2 °F 88% 29.73 in 1.0 mi SSW 10.4 mph - N/A   Overcast
2:39 AM 60.8 °F - 59.0 °F 94% 29.71 in 1.2 mi South 9.2 mph - N/A   Overcast
2:59 AM 60.8 °F - 59.0 °F 94% 29.70 in 0.8 mi South 8.1 mph - N/A   Overcast
3:19 AM 60.8 °F - 57.2 °F 88% 29.68 in 1.5 mi South 5.8 mph - N/A   Overcast
3:39 AM 60.8 °F - 57.2 °F 88% 29.66 in 1.0 mi South 8.1 mph - N/A   Overcast
3:59 AM 60.8 °F - 57.2 °F 88% 29.64 in 1.2 mi South 8.1 mph - N/A   Overcast
4:15 AM 62.6 °F - 59.0 °F 88% 29.62 in 1.0 mi South 11.5 mph 18.4 mph N/A   Overcast
4:35 AM 62.6 °F - 59.0 °F 88% 29.61 in 1.0 mi South 12.7 mph 20.7 mph N/A   Overcast
4:55 AM 60.8 °F - 59.0 °F 94% 29.61 in 1.0 mi South 11.5 mph 19.6 mph N/A   Overcast
5:15 AM 60.8 °F - 59.0 °F 94% 29.60 in 1.2 mi South 10.4 mph 18.4 mph N/A   Overcast
5:35 AM 62.6 °F - 60.8 °F 94% 29.59 in 10.0 mi South 13.8 mph 19.6 mph N/A   Mostly Cloudy
5:55 AM 60.8 °F - 59.0 °F 94% 29.60 in 10.0 mi South 11.5 mph 17.3 mph N/A   Mostly Cloudy
6:15 AM 62.6 °F - 59.0 °F 88% 29.59 in 10.0 mi South 10.4 mph - N/A   Mostly Cloudy
6:35 AM 62.6 °F - 60.8 °F 94% 29.58 in 10.0 mi South 9.2 mph - N/A Rain Rain
6:55 AM 62.6 °F - 60.8 °F 94% 29.58 in 10.0 mi South 8.1 mph - N/A   Mostly Cloudy
7:15 AM 62.6 °F - 60.8 °F 94% 29.57 in 10.0 mi South 9.2 mph - N/A   Mostly Cloudy
7:35 AM 62.6 °F - 60.8 °F 94% 29.57 in 10.0 mi South 9.2 mph - N/A   Overcast
7:55 AM 62.6 °F - 60.8 °F 94% 29.57 in 10.0 mi South 10.4 mph - N/A   Mostly Cloudy
8:15 AM 64.4 °F - 60.8 °F 88% 29.57 in 10.0 mi South 10.4 mph 16.1 mph N/A   Overcast
8:35 AM 64.4 °F - 60.8 °F 88% 29.57 in 10.0 mi SSW 12.7 mph 21.9 mph N/A   Overcast
8:55 AM 68.0 °F - 62.6 °F 83% 29.58 in 10.0 mi SW 16.1 mph 24.2 mph N/A   Overcast
9:15 AM 69.8 °F - 62.6 °F 78% 29.57 in 10.0 mi SW 18.4 mph 28.8 mph N/A   Overcast
9:35 AM 62.6 °F - 55.4 °F 77% 29.60 in 7.0 mi West 15.0 mph 28.8 mph 0.01 in Rain Rain
9:55 AM 57.2 °F - 53.6 °F 88% 29.61 in 10.0 mi West 10.4 mph 18.4 mph 0.01 in Rain Light Rain
10:15 AM 57.2 °F - 53.6 °F 88% 29.62 in 10.0 mi WNW 12.7 mph 16.1 mph N/A   Overcast
10:35 AM 55.4 °F - 50.0 °F 82% 29.63 in 10.0 mi WNW 12.7 mph 20.7 mph N/A   Overcast
10:55 AM 53.6 °F - 48.2 °F 82% 29.63 in 4.0 mi West 12.7 mph 18.4 mph 0.01 in Rain Rain
11:15 AM 53.6 °F - 48.2 °F 82% 29.63 in 5.0 mi WNW 15.0 mph 19.6 mph N/A   Light Drizzle
11:35 AM 51.8 °F - 48.2 °F 88% 29.61 in 5.0 mi WNW 10.4 mph - 0.01 in   Drizzle
11:55 AM 51.8 °F - 48.2 °F 88% 29.61 in 3.0 mi WNW 16.1 mph 23.0 mph 0.03 in   Heavy Drizzle
12:16 PM 50.0 °F - 46.4 °F 87% 29.61 in 3.0 mi NW 16.1 mph 23.0 mph N/A   Drizzle
12:35 PM 48.2 °F - 44.6 °F 87% 29.60 in 4.0 mi NW 15.0 mph 24.2 mph 0.02 in   Drizzle
12:55 PM 46.4 °F 39.0 °F 42.8 °F 87% 29.62 in 3.0 mi NNW 19.6 mph 28.8 mph 0.07 in Rain Heavy Rain
1:15 PM 42.8 °F 34.8 °F 39.2 °F 87% 29.63 in 2.0 mi NNW 17.3 mph 28.8 mph 0.05 in Rain Rain
1:35 PM 42.8 °F 36.2 °F 37.4 °F 81% 29.65 in 2.5 mi NNW 12.7 mph 23.0 mph 0.07 in Rain Rain
1:55 PM 41.0 °F 33.1 °F 37.4 °F 87% 29.65 in 4.0 mi NNW 15.0 mph 27.6 mph 0.10 in Rain Rain
2:15 PM 41.0 °F 35.2 °F 37.4 °F 87% 29.67 in 5.0 mi NNW 9.2 mph 17.3 mph 0.01 in Rain Rain
2:35 PM 41.0 °F 36.4 °F 35.6 °F 81% 29.66 in 10.0 mi NNW 6.9 mph - 0.01 in   Overcast
2:55 PM 42.8 °F 37.5 °F 35.6 °F 76% 29.67 in 10.0 mi NW 9.2 mph - 0.01 in   Overcast
3:15 PM 42.8 °F 35.4 °F 33.8 °F 70% 29.67 in 10.0 mi NW 15.0 mph 20.7 mph N/A   Overcast
3:35 PM 42.8 °F 37.0 °F 32.0 °F 66% 29.69 in 10.0 mi NW 10.4 mph 20.7 mph N/A   Overcast
3:55 PM 42.8 °F 39.3 °F 32.0 °F 66% 29.69 in 10.0 mi NNW 5.8 mph 9.2 mph N/A   Mostly Cloudy
4:15 PM 42.8 °F 38.6 °F 32.0 °F 66% 29.70 in 10.0 mi NNW 6.9 mph - N/A   Mostly Cloudy
4:35 PM 42.8 °F 38.0 °F 30.2 °F 61% 29.71 in 10.0 mi NW 8.1 mph - N/A   Mostly Cloudy
4:55 PM 42.8 °F 38.0 °F 28.4 °F 57% 29.72 in 10.0 mi NNW 8.1 mph 17.3 mph N/A   Mostly Cloudy
5:18 PM 42.8 °F 37.0 °F 28.4 °F 57% 29.73 in 10.0 mi NNW 10.4 mph 16.1 mph N/A   Overcast
5:35 PM 42.8 °F 35.8 °F 26.6 °F 53% 29.74 in 10.0 mi NNW 13.8 mph 18.4 mph N/A   Overcast
5:55 PM 42.8 °F 36.6 °F 26.6 °F 53% 29.75 in 10.0 mi NNW 11.5 mph 18.4 mph N/A   Overcast
6:15 PM 42.8 °F 36.2 °F 26.6 °F 53% 29.77 in 10.0 mi NNW 12.7 mph 17.3 mph N/A   Overcast
6:35 PM 41.0 °F 36.4 °F 26.6 °F 57% 29.78 in 10.0 mi NNW 6.9 mph - N/A   Overcast
6:55 PM 41.0 °F 34.7 °F 26.6 °F 57% 29.79 in 10.0 mi NNW 10.4 mph - N/A   Overcast
7:15 PM 41.0 °F 36.4 °F 23.0 °F 49% 29.80 in 10.0 mi NNW 6.9 mph 17.3 mph N/A   Overcast
7:35 PM 39.2 °F 33.0 °F 23.0 °F 52% 29.81 in 10.0 mi NW 9.2 mph 16.1 mph N/A   Overcast
7:55 PM 39.2 °F 32.5 °F 24.8 °F 56% 29.83 in 10.0 mi NNW 10.4 mph 19.6 mph N/A   Overcast
8:15 PM 39.2 °F 31.2 °F 23.0 °F 52% 29.84 in 10.0 mi NNW 13.8 mph 18.4 mph N/A   Overcast
8:35 PM 39.2 °F 30.8 °F 23.0 °F 52% 29.85 in 10.0 mi NNW 15.0 mph 21.9 mph N/A   Overcast
8:55 PM 39.2 °F 29.8 °F 24.8 °F 56% 29.86 in 10.0 mi WNW 18.4 mph 24.2 mph N/A   Overcast
9:15 PM 39.2 °F 29.8 °F 21.2 °F 49% 29.87 in 10.0 mi WNW 18.4 mph 24.2 mph N/A   Overcast
9:35 PM 39.2 °F 29.0 °F 17.6 °F 42% 29.89 in 10.0 mi WNW 21.9 mph 31.1 mph N/A   Overcast
9:55 PM 35.6 °F 25.2 °F 19.4 °F 52% 29.92 in 10.0 mi NNW 18.4 mph 35.7 mph N/A   Overcast
10:15 PM 33.8 °F 22.5 °F 17.6 °F 52% 29.93 in 10.0 mi NW 19.6 mph 32.2 mph N/A   Overcast
10:35 PM 32.0 °F 20.1 °F 15.8 °F 51% 29.95 in 10.0 mi NW 19.6 mph 31.1 mph N/A   Overcast
10:55 PM 30.2 °F 16.8 °F 12.2 °F 47% 29.97 in 10.0 mi NW 23.0 mph 34.5 mph N/A   Overcast
11:15 PM 28.4 °F 16.2 °F 10.4 °F 47% 29.98 in 10.0 mi NW 17.3 mph 34.5 mph N/A   Overcast
11:36 PM 28.4 °F 17.0 °F 10.4 °F 47% 30.00 in 10.0 mi NW 15.0 mph 27.6 mph N/A   Overcast
11:55 PM 26.6 °F 12.7 °F 8.6 °F 47% 30.01 in 10.0 mi NW 20.7 mph 33.4 mph N/A   Mostly Cloudy